Location: Alpha Ridge Park
(39.3209°N, 76.9128°W)
Time: 23:54:47
(UTC-04:00)

S-56A Canister/Altair - Pass Details

Date: 23 May 2019
Orbit: 633 x 2499 km, 38.9° (Epoch: 23 June)

Event Time Altitude Azimuth Distance (km) Brightness Sun altitude
Rises 04:10:21 0° 262° (W) 3,666 - -16.0°
Reaches altitude 10° 04:12:34 10° 262° (W) 2,901 - -15.7°
Exits shadow 04:13:17 14° 262° (W) 2,669 9.8 -15.6°
Maximum altitude 04:19:49 87° 174° (S) 1,429 8.8 -14.7°
Drops below altitude 10° 04:31:07 10° 88° (E) 4,384 12.2 -13.1°
Sets 04:35:14 0° 88° (E) 5,636 12.8 -12.5°
